STARLINK-37223, 68387

Orbit data source: Space-Track

STARLINK-37223, 68387 is a payload satellite owned by SpaceX/Seattle (US) in SSO that was launched on Thu, 26 Mar 2026 UTC via an FALCON 9 launch vehicle from the Air Force Western Test Range (AFWTR). Payload-class satellites include a variety of spacecraft equipped with specific instruments for various scientific and technological missions. These include communications satellites like Starlink; space stations such as the ISS; scientific satellites like the Hubble; Earth observation satellites from companies like Planet Labs, Umbra, and HawkEye 360; GPS; miniature CubeSats for education and research; and military/defense satellites.

Loading next visibility...
Identifier
68387, 2026-063H
Orbit
SSO
Country
Flag of USUS
Related business
Manufacturer
SpaceX/Seattle
Mission
Operational spacecraft
Bus & Motor
STARLINK V2MO, Unknown motor
Mass
575 kg wet, ~530 kg dry
Launch date (UTC)
2026-03-26 (2 weeks ago)
Launch vehicle
FALCON 9
Launch site
Air Force Western Test Range (AFWTR)
Object type
Payload
Rocket body
Debris
Shape & HBR
Unknown shape, 17.7 m
Radar Cross Section
RCS unknown

Expand to show TLE details & history
Last TLE update: 7 hours ago

TLE from 7 hours ago
0 STARLINK-37223
1 68387U 26063H   26102.25367678  .00065200  00000-0  33849-3 0  9997
2 68387  97.2839 243.6662 0001696  64.4197 295.7246 15.80821662  2921
Epoch: 2026-04-12T06:05Z
TLE epoch observation values (Epoch: 2026-04-12T06:05:17.673Z)
Latitude
-0.00008°
Longitude
-48.11871°
Altitude
330.798 km
Speed
7.71 km/s
True Right ascension
16h 14m 39s
True Declination
0° 00' 00"
Sunlit
Object was in full shadow at epoch
Visualization orbit readout
Latitude
Unknown
Longitude
Unknown
Altitude
Unknown
Speed
Unknown
Apparent Right ascension
Unknown
Apparent Declination
Unknown
Sunlit
N/A
Visualization observer readout
Local Sidereal Time
19:19:36
Azimuth
Unknown
Elevation
Unknown
Doppler factor
Unknown
Orbital elements
Apogee altitude
326.133 km
Perigee altitude
323.859 km
Semi-major axis
6,703.133 km
Eccentricity
0.00017
Inclination
97.2839°
RAAN
243.6662°
Arg. of periapsis
64.4197°
True anomaly
295.70709°
Mean anomaly
295.7246°
Eccentric anomaly
295.71585°
Mean motion
3.95482 °/min
Orbital period
91.03 mins
BSTAR
0.00033849
Loading maneuver chart data...
Computing Atmospheric mass density...
Loading historical data...
Loading historical data...
Loading historical data...
Loading historical data...
Loading historical data...
Loading historical data...
Loading historical data...

Documentation

Showing up to 5 results
|